Time,TemperatureF,DewpointF,PressureIn,WindDirection,WindDirectionDegrees,WindSpeedMPH,WindSpeedGustMPH,Humidity,HourlyPrecipIn,Conditions,Clouds,dailyrainin,SoftwareType,DateUTC
2013-12-20 00:02:00,48.2,1.2,29.81,WNW,288,3.1,3.1,14,0.00,,,0.00,VWS V14.01,2013-12-20 08:02:00,
2013-12-20 00:07:00,48.2,1.2,29.81,West,279,2.2,3.6,14,0.00,,,0.00,VWS V14.01,2013-12-20 08:07:00,
2013-12-20 00:12:00,48.0,1.1,29.81,WNW,294,3.6,4.0,14,0.00,,,0.00,VWS V14.01,2013-12-20 08:12:00,
2013-12-20 00:17:00,47.8,1.0,29.81,WNW,291,4.0,4.0,14,0.00,,,0.00,VWS V14.01,2013-12-20 08:17:00,
2013-12-20 00:22:00,47.8,1.0,29.81,NNW,341,0.0,3.1,14,0.00,,,0.00,VWS V14.01,2013-12-20 08:22:00,
2013-12-20 00:27:00,47.3,-2.7,29.81,North,10,3.6,3.6,12,0.00,,,0.00,VWS V14.01,2013-12-20 08:27:00,
2013-12-20 00:32:00,46.9,-3.0,29.81,NE,51,3.1,3.6,12,0.00,,,0.00,VWS V14.01,2013-12-20 08:32:00,
2013-12-20 00:37:00,46.8,-3.2,29.81,NNE,25,2.2,2.2,12,0.00,,,0.00,VWS V14.01,2013-12-20 08:37:00,
2013-12-20 00:42:00,46.4,-3.4,29.81,WNW,285,3.6,3.6,12,0.00,,,0.00,VWS V14.01,2013-12-20 08:42:00,
2013-12-20 00:47:00,46.4,-3.4,29.81,West,262,4.0,4.9,12,0.00,,,0.00,VWS V14.01,2013-12-20 08:47:00,
2013-12-20 00:52:00,46.8,-3.2,29.81,WNW,287,3.6,3.6,12,0.00,,,0.00,VWS V14.01,2013-12-20 08:52:00,
2013-12-20 00:57:00,47.3,-2.7,29.81,WNW,289,3.1,8.3,12,0.00,,,0.00,VWS V14.01,2013-12-20 08:57:00,
2013-12-20 01:02:00,47.7,0.8,29.81,North,357,3.1,4.0,14,0.00,,,0.00,VWS V14.01,2013-12-20 09:02:00,
2013-12-20 01:07:00,47.7,0.8,29.81,West,263,2.2,2.7,14,0.00,,,0.00,VWS V14.01,2013-12-20 09:07:00,
2013-12-20 01:12:00,47.5,-2.6,29.81,NNW,348,0.0,0.0,12,0.00,,,0.00,VWS V14.01,2013-12-20 09:12:00,
2013-12-20 01:17:00,47.3,-2.7,29.81,NW,304,4.0,4.0,12,0.00,,,0.00,VWS V14.01,2013-12-20 09:17:00,
2013-12-20 01:22:00,47.1,-2.9,29.81,NNW,339,2.2,3.1,12,0.00,,,0.00,VWS V14.01,2013-12-20 09:22:00,
2013-12-20 01:27:00,46.9,-3.0,29.81,East,84,0.0,0.0,12,0.00,,,0.00,VWS V14.01,2013-12-20 09:27:00,
2013-12-20 01:32:00,46.6,-3.3,29.81,West,267,2.2,2.2,12,0.00,,,0.00,VWS V14.01,2013-12-20 09:32:00,
2013-12-20 01:37:00,46.0,-3.7,29.81,WNW,288,0.0,0.0,12,0.00,,,0.00,VWS V14.01,2013-12-20 09:37:00,
2013-12-20 01:42:00,45.3,-4.3,29.81,NE,41,0.0,0.0,12,0.00,,,0.00,VWS V14.01,2013-12-20 09:42:00,
2013-12-20 01:47:00,45.0,-4.6,29.81,North,0,2.7,3.6,12,0.00,,,0.00,VWS V14.01,2013-12-20 09:47:00,
2013-12-20 01:52:00,45.3,-4.3,29.81,North,0,0.0,0.0,12,0.00,,,0.00,VWS V14.01,2013-12-20 09:52:00,
2013-12-20 01:57:00,44.8,-4.7,29.81,NE,55,0.0,0.0,12,0.00,,,0.00,VWS V14.01,2013-12-20 09:57:00,
2013-12-20 02:02:00,44.1,-3.6,29.81,NNE,18,3.1,3.1,13,0.00,,,0.00,VWS V14.01,2013-12-20 10:02:00,
2013-12-20 02:07:00,43.5,-4.1,29.81,NNE,17,3.1,3.1,13,0.00,,,0.00,VWS V14.01,2013-12-20 10:07:00,
2013-12-20 02:12:00,44.1,-3.6,29.81,NNE,33,3.6,4.0,13,0.00,,,0.00,VWS V14.01,2013-12-20 10:12:00,
2013-12-20 02:17:00,44.6,-4.9,29.81,North,357,0.0,0.0,12,0.00,,,0.00,VWS V14.01,2013-12-20 10:17:00,
2013-12-20 02:22:00,44.6,-4.9,29.81,North,357,0.0,0.0,12,0.00,,,0.00,VWS V14.01,2013-12-20 10:22:00,
2013-12-20 02:27:00,44.2,-3.5,29.81,North,357,0.0,0.0,13,0.00,,,0.00,VWS V14.01,2013-12-20 10:27:00,
2013-12-20 02:32:00,43.7,-3.9,29.81,North,357,0.0,0.0,13,0.00,,,0.00,VWS V14.01,2013-12-20 10:32:00,
2013-12-20 02:37:00,44.1,-3.6,29.84,North,357,2.2,3.1,13,0.00,,,0.00,VWS V14.01,2013-12-20 10:37:00,
2013-12-20 02:42:00,44.4,-3.3,29.84,West,280,2.7,5.4,13,0.00,,,0.00,VWS V14.01,2013-12-20 10:42:00,
2013-12-20 02:47:00,44.6,-4.9,29.84,NE,38,2.2,3.1,12,0.00,,,0.00,VWS V14.01,2013-12-20 10:47:00,
2013-12-20 02:52:00,44.4,-3.3,29.84,NNE,20,0.0,3.1,13,0.00,,,0.00,VWS V14.01,2013-12-20 10:52:00,
2013-12-20 02:58:00,44.6,-4.9,29.84,North,10,2.2,2.7,12,0.00,,,0.00,VWS V14.01,2013-12-20 10:58:00,
2013-12-20 03:03:00,44.4,-3.3,29.84,North,10,0.0,0.0,13,0.00,,,0.00,VWS V14.01,2013-12-20 11:03:00,
2013-12-20 03:08:00,44.1,-3.6,29.84,NW,323,0.0,0.0,13,0.00,,,0.00,VWS V14.01,2013-12-20 11:08:00,
2013-12-20 03:13:00,43.3,-4.2,29.84,NW,324,0.0,0.0,13,0.00,,,0.00,VWS V14.01,2013-12-20 11:13:00,
2013-12-20 03:18:00,42.8,-4.6,29.84,ENE,59,0.0,0.0,13,0.00,,,0.00,VWS V14.01,2013-12-20 11:18:00,
2013-12-20 03:23:00,42.1,-5.2,29.84,ENE,59,0.0,0.0,13,0.00,,,0.00,VWS V14.01,2013-12-20 11:23:00,
2013-12-20 03:28:00,41.9,-5.3,29.84,ENE,59,0.0,0.0,13,0.00,,,0.00,VWS V14.01,2013-12-20 11:28:00,
2013-12-20 03:33:00,41.7,-5.5,29.84,ENE,59,0.0,0.0,13,0.00,,,0.00,VWS V14.01,2013-12-20 11:33:00,
2013-12-20 03:38:00,41.5,-5.6,29.84,ENE,58,0.0,0.0,13,0.00,,,0.00,VWS V14.01,2013-12-20 11:38:00,
2013-12-20 03:43:00,41.9,-5.3,29.84,ENE,59,0.0,0.0,13,0.00,,,0.00,VWS V14.01,2013-12-20 11:43:00,
2013-12-20 03:47:00,41.7,-5.5,29.84,ENE,58,0.0,0.0,13,0.00,,,0.00,VWS V14.01,2013-12-20 11:47:00,
2013-12-20 03:53:00,42.3,-5.1,29.81,ENE,59,0.0,0.0,13,0.00,,,0.00,VWS V14.01,2013-12-20 11:53:00,
2013-12-20 03:58:00,42.8,-4.6,29.81,ENE,57,2.7,2.7,13,0.00,,,0.00,VWS V14.01,2013-12-20 11:58:00,
2013-12-20 04:03:00,43.2,-4.3,29.81,NE,51,2.2,2.2,13,0.00,,,0.00,VWS V14.01,2013-12-20 12:03:00,
2013-12-20 04:08:00,43.3,-4.2,29.84,NE,53,2.2,3.1,13,0.00,,,0.00,VWS V14.01,2013-12-20 12:08:00,
2013-12-20 04:13:00,43.7,-3.9,29.84,NNE,24,2.7,2.7,13,0.00,,,0.00,VWS V14.01,2013-12-20 12:13:00,
2013-12-20 04:18:00,43.9,-3.8,29.84,NNE,31,2.7,3.1,13,0.00,,,0.00,VWS V14.01,2013-12-20 12:18:00,
2013-12-20 04:23:00,44.1,-3.6,29.84,NE,35,2.2,3.6,13,0.00,,,0.00,VWS V14.01,2013-12-20 12:23:00,
2013-12-20 04:28:00,44.1,-3.6,29.84,ENE,64,2.2,2.2,13,0.00,,,0.00,VWS V14.01,2013-12-20 12:28:00,
2013-12-20 04:33:00,44.2,-3.5,29.84,ENE,67,3.1,3.1,13,0.00,,,0.00,VWS V14.01,2013-12-20 12:33:00,
2013-12-20 04:38:00,44.8,-4.7,29.84,NNE,30,2.7,2.7,12,0.00,,,0.00,VWS V14.01,2013-12-20 12:38:00,
2013-12-20 04:43:00,45.1,-4.4,29.84,ENE,71,3.6,3.6,12,0.00,,,0.00,VWS V14.01,2013-12-20 12:43:00,
2013-12-20 04:48:00,45.1,-4.4,29.84,East,101,3.6,3.6,12,0.00,,,0.00,VWS V14.01,2013-12-20 12:48:00,
2013-12-20 04:53:00,44.8,-4.7,29.84,East,88,0.0,3.1,12,0.00,,,0.00,VWS V14.01,2013-12-20 12:53:00,
2013-12-20 04:58:00,44.4,-3.3,29.84,ENE,72,4.0,4.0,13,0.00,,,0.00,VWS V14.01,2013-12-20 12:58:00,
2013-12-20 05:03:00,44.2,-3.5,29.84,ENE,77,2.2,2.2,13,0.00,,,0.00,VWS V14.01,2013-12-20 13:03:00,
2013-12-20 05:08:00,44.1,-3.6,29.84,East,82,2.2,2.2,13,0.00,,,0.00,VWS V14.01,2013-12-20 13:08:00,
2013-12-20 05:13:00,44.1,-3.6,29.84,ENE,59,2.2,3.1,13,0.00,,,0.00,VWS V14.01,2013-12-20 13:13:00,
2013-12-20 05:18:00,43.7,-3.9,29.84,NE,46,2.2,2.2,13,0.00,,,0.00,VWS V14.01,2013-12-20 13:18:00,
2013-12-20 05:23:00,43.0,-4.5,29.84,NE,52,3.6,3.6,13,0.00,,,0.00,VWS V14.01,2013-12-20 13:23:00,
2013-12-20 05:28:00,43.0,-4.5,29.84,NE,42,3.1,4.0,13,0.00,,,0.00,VWS V14.01,2013-12-20 13:28:00,
2013-12-20 05:33:00,43.0,-4.5,29.84,NE,47,2.7,2.7,13,0.00,,,0.00,VWS V14.01,2013-12-20 13:33:00,
2013-12-20 05:38:00,43.5,-4.1,29.81,ENE,62,2.2,2.2,13,0.00,,,0.00,VWS V14.01,2013-12-20 13:38:00,
2013-12-20 05:43:00,43.7,-3.9,29.81,ENE,62,2.7,2.7,13,0.00,,,0.00,VWS V14.01,2013-12-20 13:43:00,
2013-12-20 05:48:00,43.5,-4.1,29.81,ENE,62,2.7,2.7,13,0.00,,,0.00,VWS V14.01,2013-12-20 13:48:00,
2013-12-20 05:53:00,43.3,-4.2,29.84,NE,40,2.7,3.1,13,0.00,,,0.00,VWS V14.01,2013-12-20 13:53:00,
2013-12-20 05:58:00,43.3,-4.2,29.84,NE,40,2.2,2.7,13,0.00,,,0.00,VWS V14.01,2013-12-20 13:58:00,
2013-12-20 06:03:00,43.3,-4.2,29.84,NE,37,2.7,2.7,13,0.00,,,0.00,VWS V14.01,2013-12-20 14:03:00,
2013-12-20 06:08:00,43.3,-4.2,29.84,NE,37,0.0,0.0,13,0.00,,,0.00,VWS V14.01,2013-12-20 14:08:00,
2013-12-20 06:13:00,43.2,-4.3,29.84,NE,36,0.0,0.0,13,0.00,,,0.00,VWS V14.01,2013-12-20 14:13:00,
2013-12-20 06:18:00,43.0,-4.5,29.84,East,82,3.1,3.1,13,0.00,,,0.00,VWS V14.01,2013-12-20 14:18:00,
2013-12-20 06:23:00,42.4,-4.9,29.84,ESE,104,2.2,2.2,13,0.00,,,0.00,VWS V14.01,2013-12-20 14:23:00,
2013-12-20 06:28:00,42.4,-4.9,29.84,ENE,77,4.0,4.0,13,0.00,,,0.00,VWS V14.01,2013-12-20 14:28:00,
2013-12-20 06:33:00,43.0,-4.5,29.84,ENE,65,2.2,3.1,13,0.00,,,0.00,VWS V14.01,2013-12-20 14:33:00,
2013-12-20 06:38:00,43.5,-4.1,29.84,ENE,60,0.0,0.0,13,0.00,,,0.00,VWS V14.01,2013-12-20 14:38:00,
2013-12-20 06:43:00,43.7,-3.9,29.84,NE,49,2.7,3.6,13,0.00,,,0.00,VWS V14.01,2013-12-20 14:43:00,
2013-12-20 06:48:00,44.1,-3.6,29.84,NE,35,0.0,0.0,13,0.00,,,0.00,VWS V14.01,2013-12-20 14:48:00,
2013-12-20 06:53:00,44.1,-3.6,29.84,NNE,14,3.1,3.1,13,0.00,,,0.00,VWS V14.01,2013-12-20 14:53:00,
2013-12-20 06:58:00,44.2,-3.5,29.84,NNE,13,0.0,2.2,13,0.00,,,0.00,VWS V14.01,2013-12-20 14:58:00,
2013-12-20 07:03:00,44.1,-3.6,29.84,NNE,20,3.1,3.1,13,0.00,,,0.00,VWS V14.01,2013-12-20 15:03:00,
2013-12-20 07:08:00,44.4,-3.3,29.84,North,6,2.7,3.6,13,0.00,,,0.00,VWS V14.01,2013-12-20 15:08:00,
2013-12-20 07:13:00,45.0,-4.6,29.84,North,0,3.6,4.0,12,0.00,,,0.00,VWS V14.01,2013-12-20 15:13:00,
2013-12-20 07:18:00,45.5,-4.2,29.84,NE,44,4.0,4.0,12,0.00,,,0.00,VWS V14.01,2013-12-20 15:18:00,
2013-12-20 07:23:00,45.7,-4.0,29.87,North,9,4.9,4.9,12,0.00,,,0.00,VWS V14.01,2013-12-20 15:23:00,
2013-12-20 07:28:00,45.5,-4.2,29.87,NNE,12,2.7,4.0,12,0.00,,,0.00,VWS V14.01,2013-12-20 15:28:00,
2013-12-20 07:33:00,45.1,-4.4,29.87,ENE,58,4.9,4.9,12,0.00,,,0.00,VWS V14.01,2013-12-20 15:33:00,
2013-12-20 07:38:00,45.0,-4.6,29.84,NNE,28,5.8,5.8,12,0.00,,,0.00,VWS V14.01,2013-12-20 15:38:00,
2013-12-20 07:43:00,45.1,-4.4,29.84,NNE,15,0.0,0.0,12,0.00,,,0.00,VWS V14.01,2013-12-20 15:43:00,
2013-12-20 07:48:00,44.8,-4.7,29.84,NNE,15,0.0,0.0,12,0.00,,,0.00,VWS V14.01,2013-12-20 15:48:00,
2013-12-20 07:53:00,44.1,-3.6,29.87,ENE,77,2.2,2.7,13,0.00,,,0.00,VWS V14.01,2013-12-20 15:53:00,
2013-12-20 07:58:00,43.5,-4.1,29.87,North,8,2.7,2.7,13,0.00,,,0.00,VWS V14.01,2013-12-20 15:58:00,
2013-12-20 08:03:00,43.7,-3.9,29.87,NNE,30,4.0,4.0,13,0.00,,,0.00,VWS V14.01,2013-12-20 16:03:00,
2013-12-20 08:08:00,44.8,-4.7,29.84,NNE,23,0.0,0.0,12,0.00,,,0.00,VWS V14.01,2013-12-20 16:08:00,
2013-12-20 08:13:00,45.5,-4.2,29.84,NE,42,0.0,0.0,12,0.00,,,0.00,VWS V14.01,2013-12-20 16:13:00,
2013-12-20 08:18:00,46.0,-3.7,29.84,NE,42,0.0,0.0,12,0.00,,,0.00,VWS V14.01,2013-12-20 16:18:00,
2013-12-20 08:23:00,47.1,-2.9,29.87,NE,42,0.0,0.0,12,0.00,,,0.00,VWS V14.01,2013-12-20 16:23:00,
2013-12-20 08:28:00,47.7,-2.5,29.87,NE,42,0.0,0.0,12,0.00,,,0.00,VWS V14.01,2013-12-20 16:28:00,
2013-12-20 08:33:00,47.8,-2.3,29.87,NE,42,0.0,0.0,12,0.00,,,0.00,VWS V14.01,2013-12-20 16:33:00,
2013-12-20 08:38:00,48.0,1.1,29.87,NE,44,4.0,4.0,14,0.00,,,0.00,VWS V14.01,2013-12-20 16:38:00,
2013-12-20 08:43:00,48.4,1.4,29.87,NE,34,2.7,2.7,14,0.00,,,0.00,VWS V14.01,2013-12-20 16:43:00,
2013-12-20 08:48:00,48.9,1.8,29.87,NNW,346,0.0,0.0,14,0.00,,,0.00,VWS V14.01,2013-12-20 16:48:00,
2013-12-20 08:53:00,49.3,2.1,29.87,NNW,346,0.0,0.0,14,0.00,,,0.00,VWS V14.01,2013-12-20 16:53:00,
2013-12-20 08:58:00,49.8,2.5,29.87,SW,214,2.7,3.1,14,0.00,,,0.00,VWS V14.01,2013-12-20 16:58:00,
2013-12-20 09:03:00,49.8,2.5,29.87,SW,215,0.0,0.0,14,0.00,,,0.00,VWS V14.01,2013-12-20 17:03:00,
2013-12-20 09:08:00,49.8,2.5,29.87,SW,215,0.0,0.0,14,0.00,,,0.00,VWS V14.01,2013-12-20 17:08:00,
2013-12-20 09:13:00,50.2,2.8,29.87,SW,215,0.0,0.0,14,0.00,,,0.00,VWS V14.01,2013-12-20 17:13:00,
2013-12-20 09:18:00,50.5,3.1,29.87,SW,215,0.0,0.0,14,0.00,,,0.00,VWS V14.01,2013-12-20 17:18:00,
2013-12-20 09:23:00,50.5,3.1,29.87,SW,215,0.0,2.2,14,0.00,,,0.00,VWS V14.01,2013-12-20 17:23:00,
2013-12-20 09:28:00,50.7,3.3,29.87,SW,215,2.2,2.2,14,0.00,,,0.00,VWS V14.01,2013-12-20 17:28:00,
2013-12-20 09:33:00,50.9,3.4,29.87,SW,215,0.0,2.2,14,0.00,,,0.00,VWS V14.01,2013-12-20 17:33:00,
2013-12-20 09:38:00,51.1,3.6,29.90,SW,215,0.0,0.0,14,0.00,,,0.00,VWS V14.01,2013-12-20 17:38:00,
2013-12-20 09:43:00,51.3,3.7,29.90,South,186,3.1,3.1,14,0.00,,,0.00,VWS V14.01,2013-12-20 17:43:00,
2013-12-20 09:48:00,51.4,3.8,29.90,ESE,121,2.7,2.7,14,0.00,,,0.00,VWS V14.01,2013-12-20 17:48:00,
2013-12-20 09:53:00,51.6,4.0,29.90,SSW,212,2.7,3.6,14,0.00,,,0.00,VWS V14.01,2013-12-20 17:53:00,
2013-12-20 09:58:00,51.8,2.5,29.90,SW,234,2.2,3.1,13,0.00,,,0.00,VWS V14.01,2013-12-20 17:58:00,
2013-12-20 10:03:00,51.8,2.5,29.90,SW,225,2.2,2.2,13,0.00,,,0.00,VWS V14.01,2013-12-20 18:03:00,
2013-12-20 10:08:00,52.2,2.8,29.90,SSE,163,2.7,2.7,13,0.00,,,0.00,VWS V14.01,2013-12-20 18:08:00,
2013-12-20 10:14:00,52.3,3.0,29.90,WNW,288,2.7,3.1,13,0.00,,,0.00,VWS V14.01,2013-12-20 18:14:00,
2013-12-20 10:19:00,52.3,3.0,29.90,WNW,293,3.1,4.0,13,0.00,,,0.00,VWS V14.01,2013-12-20 18:19:00,
2013-12-20 10:24:00,52.3,3.0,29.90,WSW,240,0.0,2.7,13,0.00,,,0.00,VWS V14.01,2013-12-20 18:24:00,
2013-12-20 10:29:00,52.7,3.2,29.90,WNW,301,3.6,3.6,13,0.00,,,0.00,VWS V14.01,2013-12-20 18:29:00,
2013-12-20 10:34:00,52.7,3.2,29.90,West,280,3.6,4.0,13,0.00,,,0.00,VWS V14.01,2013-12-20 18:34:00,
2013-12-20 10:39:00,52.5,3.1,29.90,West,274,4.0,4.0,13,0.00,,,0.00,VWS V14.01,2013-12-20 18:39:00,
2013-12-20 10:44:00,53.1,3.5,29.90,NW,309,0.0,0.0,13,0.00,,,0.00,VWS V14.01,2013-12-20 18:44:00,
2013-12-20 10:49:00,54.1,4.4,29.90,NW,323,2.2,2.2,13,0.00,,,0.00,VWS V14.01,2013-12-20 18:49:00,
2013-12-20 10:54:00,54.7,4.8,29.87,SSW,209,4.9,4.9,13,0.00,,,0.00,VWS V14.01,2013-12-20 18:54:00,
2013-12-20 10:59:00,54.9,5.0,29.87,SSW,192,2.7,5.8,13,0.00,,,0.00,VWS V14.01,2013-12-20 18:59:00,
2013-12-20 11:04:00,55.2,5.2,29.87,South,185,2.7,2.7,13,0.00,,,0.00,VWS V14.01,2013-12-20 19:04:00,
2013-12-20 11:09:00,55.8,3.9,29.90,SSW,192,2.2,2.7,12,0.00,,,0.00,VWS V14.01,2013-12-20 19:09:00,
2013-12-20 11:14:00,56.3,4.4,29.90,SW,220,4.5,4.5,12,0.00,,,0.00,VWS V14.01,2013-12-20 19:14:00,
2013-12-20 11:19:00,56.3,4.4,29.90,WSW,257,3.1,3.6,12,0.00,,,0.00,VWS V14.01,2013-12-20 19:19:00,
2013-12-20 11:24:00,56.3,4.4,29.87,South,181,3.1,4.0,12,0.00,,,0.00,VWS V14.01,2013-12-20 19:24:00,
2013-12-20 11:29:00,56.3,4.4,29.87,SSW,213,3.6,4.5,12,0.00,,,0.00,VWS V14.01,2013-12-20 19:29:00,
2013-12-20 11:33:00,56.3,4.4,29.87,SSW,209,2.2,2.2,12,0.00,,,0.00,VWS V14.01,2013-12-20 19:33:00,
2013-12-20 11:38:00,56.5,4.5,29.87,SSW,204,3.6,5.4,12,0.00,,,0.00,VWS V14.01,2013-12-20 19:38:00,
2013-12-20 11:43:00,56.1,4.2,29.87,SW,215,2.7,2.7,12,0.00,,,0.00,VWS V14.01,2013-12-20 19:43:00,
2013-12-20 11:48:00,56.5,4.5,29.87,SSW,200,2.7,4.0,12,0.00,,,0.00,VWS V14.01,2013-12-20 19:48:00,
2013-12-20 11:53:00,56.7,4.6,29.87,SW,228,0.0,3.1,12,0.00,,,0.00,VWS V14.01,2013-12-20 19:53:00,
2013-12-20 11:58:00,57.0,4.9,29.87,South,190,3.1,3.1,12,0.00,,,0.00,VWS V14.01,2013-12-20 19:58:00,
2013-12-20 12:03:00,57.2,5.1,29.87,South,177,3.1,3.1,12,0.00,,,0.00,VWS V14.01,2013-12-20 20:03:00,
2013-12-20 12:08:00,57.9,5.6,29.84,South,178,2.7,4.0,12,0.00,,,0.00,VWS V14.01,2013-12-20 20:08:00,
2013-12-20 12:13:00,58.1,5.8,29.84,WSW,245,4.9,4.9,12,0.00,,,0.00,VWS V14.01,2013-12-20 20:13:00,
2013-12-20 12:18:00,58.5,6.1,29.84,SSW,207,2.7,2.7,12,0.00,,,0.00,VWS V14.01,2013-12-20 20:18:00,
2013-12-20 12:23:00,58.3,5.9,29.84,WSW,258,3.6,4.9,12,0.00,,,0.00,VWS V14.01,2013-12-20 20:23:00,
2013-12-20 12:28:00,57.9,5.6,29.84,SSW,204,3.1,3.1,12,0.00,,,0.00,VWS V14.01,2013-12-20 20:28:00,
2013-12-20 12:33:00,58.1,5.8,29.84,SW,217,0.0,3.1,12,0.00,,,0.00,VWS V14.01,2013-12-20 20:33:00,
2013-12-20 12:38:00,58.5,6.1,29.84,SSW,197,3.1,3.1,12,0.00,,,0.00,VWS V14.01,2013-12-20 20:38:00,
2013-12-20 12:43:00,58.3,5.9,29.84,SSE,151,3.1,3.1,12,0.00,,,0.00,VWS V14.01,2013-12-20 20:43:00,
2013-12-20 12:48:00,58.3,5.9,29.84,SSW,206,2.7,3.6,12,0.00,,,0.00,VWS V14.01,2013-12-20 20:48:00,
2013-12-20 12:53:00,58.6,6.2,29.84,SSW,212,3.1,3.6,12,0.00,,,0.00,VWS V14.01,2013-12-20 20:53:00,
2013-12-20 12:58:00,58.3,5.9,29.84,SSW,213,2.2,2.7,12,0.00,,,0.00,VWS V14.01,2013-12-20 20:58:00,
2013-12-20 13:03:00,58.5,6.1,29.84,SSW,193,3.6,3.6,12,0.00,,,0.00,VWS V14.01,2013-12-20 21:03:00,
2013-12-20 13:08:00,58.6,6.2,29.84,SSW,203,2.2,2.2,12,0.00,,,0.00,VWS V14.01,2013-12-20 21:08:00,
2013-12-20 13:13:00,59.0,6.5,29.84,WNW,296,3.6,3.6,12,0.00,,,0.00,VWS V14.01,2013-12-20 21:13:00,
2013-12-20 13:18:00,58.8,6.3,29.84,WSW,237,4.0,4.0,12,0.00,,,0.00,VWS V14.01,2013-12-20 21:18:00,
2013-12-20 13:23:00,58.8,6.3,29.84,WSW,250,0.0,0.0,12,0.00,,,0.00,VWS V14.01,2013-12-20 21:23:00,
2013-12-20 13:28:00,58.6,6.2,29.84,West,276,3.1,3.1,12,0.00,,,0.00,VWS V14.01,2013-12-20 21:28:00,
2013-12-20 13:33:00,58.5,6.1,29.84,SW,214,2.7,4.0,12,0.00,,,0.00,VWS V14.01,2013-12-20 21:33:00,
2013-12-20 13:38:00,59.0,6.5,29.84,WSW,258,3.6,4.0,12,0.00,,,0.00,VWS V14.01,2013-12-20 21:38:00,
2013-12-20 13:43:00,59.4,6.8,29.84,SSW,210,3.6,4.0,12,0.00,,,0.00,VWS V14.01,2013-12-20 21:43:00,
2013-12-20 13:48:00,59.4,6.8,29.84,SW,236,3.1,3.6,12,0.00,,,0.00,VWS V14.01,2013-12-20 21:48:00,
2013-12-20 13:53:00,59.4,6.8,29.84,West,276,2.7,3.1,12,0.00,,,0.00,VWS V14.01,2013-12-20 21:53:00,
2013-12-20 13:58:00,59.4,6.8,29.84,SW,218,4.0,4.0,12,0.00,,,0.00,VWS V14.01,2013-12-20 21:58:00,
2013-12-20 14:03:00,59.7,7.0,29.84,WSW,247,4.0,4.0,12,0.00,,,0.00,VWS V14.01,2013-12-20 22:03:00,
2013-12-20 14:08:00,59.7,7.0,29.84,SW,225,4.0,4.0,12,0.00,,,0.00,VWS V14.01,2013-12-20 22:08:00,
2013-12-20 14:13:00,58.8,6.3,29.84,West,262,3.1,3.1,12,0.00,,,0.00,VWS V14.01,2013-12-20 22:13:00,
2013-12-20 14:18:00,58.6,6.2,29.84,WSW,237,3.1,3.1,12,0.00,,,0.00,VWS V14.01,2013-12-20 22:18:00,
2013-12-20 14:23:00,58.6,6.2,29.84,SW,232,2.7,2.7,12,0.00,,,0.00,VWS V14.01,2013-12-20 22:23:00,
2013-12-20 14:28:00,58.6,6.2,29.84,SW,227,0.0,0.0,12,0.00,,,0.00,VWS V14.01,2013-12-20 22:28:00,
2013-12-20 14:33:00,59.2,6.6,29.84,SW,228,3.6,3.6,12,0.00,,,0.00,VWS V14.01,2013-12-20 22:33:00,
2013-12-20 14:38:00,59.5,6.9,29.84,SW,227,2.7,2.7,12,0.00,,,0.00,VWS V14.01,2013-12-20 22:38:00,
2013-12-20 14:43:00,59.9,7.2,29.84,SW,227,0.0,2.7,12,0.00,,,0.00,VWS V14.01,2013-12-20 22:43:00,
2013-12-20 14:48:00,59.7,7.0,29.84,WSW,256,2.7,3.6,12,0.00,,,0.00,VWS V14.01,2013-12-20 22:48:00,
2013-12-20 14:53:00,59.7,7.0,29.84,WSW,238,2.7,2.7,12,0.00,,,0.00,VWS V14.01,2013-12-20 22:53:00,
2013-12-20 14:58:00,59.4,6.8,29.84,SSW,202,3.1,3.1,12,0.00,,,0.00,VWS V14.01,2013-12-20 22:58:00,
2013-12-20 15:03:00,58.8,6.3,29.84,SW,236,2.7,4.0,12,0.00,,,0.00,VWS V14.01,2013-12-20 23:03:00,
2013-12-20 15:08:00,58.6,6.2,29.84,SW,227,0.0,0.0,12,0.00,,,0.00,VWS V14.01,2013-12-20 23:08:00,
2013-12-20 15:13:00,58.6,6.2,29.84,SW,227,0.0,0.0,12,0.00,,,0.00,VWS V14.01,2013-12-20 23:13:00,
2013-12-20 15:18:00,58.6,6.2,29.84,SW,227,0.0,2.2,12,0.00,,,0.00,VWS V14.01,2013-12-20 23:18:00,
2013-12-20 15:23:00,58.6,6.2,29.84,SW,227,0.0,2.7,12,0.00,,,0.00,VWS V14.01,2013-12-20 23:23:00,
2013-12-20 15:28:00,58.5,6.1,29.84,West,274,0.0,0.0,12,0.00,,,0.00,VWS V14.01,2013-12-20 23:28:00,
2013-12-20 15:34:00,58.6,6.2,29.84,SW,220,2.7,3.1,12,0.00,,,0.00,VWS V14.01,2013-12-20 23:34:00,
2013-12-20 15:39:00,59.2,6.6,29.84,SSW,210,2.7,3.1,12,0.00,,,0.00,VWS V14.01,2013-12-20 23:39:00,
2013-12-20 15:44:00,59.2,6.6,29.84,SSW,210,0.0,0.0,12,0.00,,,0.00,VWS V14.01,2013-12-20 23:44:00,
2013-12-20 15:49:00,59.4,6.8,29.84,SW,232,2.2,3.1,12,0.00,,,0.00,VWS V14.01,2013-12-20 23:49:00,
2013-12-20 15:54:00,59.2,6.6,29.84,SSW,202,0.0,0.0,12,0.00,,,0.00,VWS V14.01,2013-12-20 23:54:00,
2013-12-20 15:59:00,58.6,6.2,29.84,SSW,202,0.0,0.0,12,0.00,,,0.00,VWS V14.01,2013-12-20 23:59:00,
2013-12-20 16:04:00,58.8,6.3,29.84,SSW,202,2.7,2.7,12,0.00,,,0.00,VWS V14.01,2013-12-21 00:04:00,
2013-12-20 16:09:00,58.8,6.3,29.84,SSW,205,0.0,2.7,12,0.00,,,0.00,VWS V14.01,2013-12-21 00:09:00,
2013-12-20 16:14:00,58.3,5.9,29.84,SSW,205,0.0,0.0,12,0.00,,,0.00,VWS V14.01,2013-12-21 00:14:00,
2013-12-20 16:19:00,57.9,5.6,29.84,SSW,205,2.7,3.1,12,0.00,,,0.00,VWS V14.01,2013-12-21 00:19:00,
2013-12-20 16:24:00,57.6,5.3,29.84,SSW,208,2.7,2.7,12,0.00,,,0.00,VWS V14.01,2013-12-21 00:24:00,
2013-12-20 16:29:00,57.0,4.9,29.84,SSW,209,0.0,0.0,12,0.00,,,0.00,VWS V14.01,2013-12-21 00:29:00,
2013-12-20 16:34:00,56.3,4.4,29.84,SSW,208,0.0,0.0,12,0.00,,,0.00,VWS V14.01,2013-12-21 00:34:00,
2013-12-20 16:39:00,55.6,3.8,29.84,East,89,2.7,3.1,12,0.00,,,0.00,VWS V14.01,2013-12-21 00:39:00,
2013-12-20 16:44:00,55.0,5.1,29.84,East,89,2.2,2.7,13,0.00,,,0.00,VWS V14.01,2013-12-21 00:44:00,
2013-12-20 16:49:00,55.2,5.2,29.84,East,89,0.0,0.0,13,0.00,,,0.00,VWS V14.01,2013-12-21 00:49:00,
2013-12-20 16:54:00,55.6,3.8,29.84,East,89,0.0,0.0,12,0.00,,,0.00,VWS V14.01,2013-12-21 00:54:00,
2013-12-20 16:59:00,55.4,3.7,29.84,East,88,0.0,0.0,12,0.00,,,0.00,VWS V14.01,2013-12-21 00:59:00,
2013-12-20 17:04:00,55.0,5.1,29.84,East,89,0.0,0.0,13,0.00,,,0.00,VWS V14.01,2013-12-21 01:04:00,
2013-12-20 17:09:00,54.5,4.7,29.81,East,89,0.0,0.0,13,0.00,,,0.00,VWS V14.01,2013-12-21 01:09:00,
2013-12-20 17:14:00,54.3,4.5,29.81,East,89,0.0,0.0,13,0.00,,,0.00,VWS V14.01,2013-12-21 01:14:00,
2013-12-20 17:19:00,54.0,4.2,29.81,East,89,0.0,0.0,13,0.00,,,0.00,VWS V14.01,2013-12-21 01:19:00,
2013-12-20 17:24:00,53.8,4.1,29.81,East,89,2.7,3.1,13,0.00,,,0.00,VWS V14.01,2013-12-21 01:24:00,
2013-12-20 17:29:00,53.8,4.1,29.81,East,89,2.7,2.7,13,0.00,,,0.00,VWS V14.01,2013-12-21 01:29:00,
2013-12-20 17:34:00,54.0,4.2,29.81,East,89,2.2,2.2,13,0.00,,,0.00,VWS V14.01,2013-12-21 01:34:00,
2013-12-20 17:39:00,54.1,4.4,29.84,East,89,2.7,2.7,13,0.00,,,0.00,VWS V14.01,2013-12-21 01:39:00,
2013-12-20 17:44:00,54.3,4.5,29.84,East,89,2.7,2.7,13,0.00,,,0.00,VWS V14.01,2013-12-21 01:44:00,
2013-12-20 17:49:00,54.1,4.4,29.84,East,89,2.7,2.7,13,0.00,,,0.00,VWS V14.01,2013-12-21 01:49:00,
2013-12-20 17:54:00,54.0,4.2,29.84,East,89,2.7,3.1,13,0.00,,,0.00,VWS V14.01,2013-12-21 01:54:00,
2013-12-20 17:59:00,53.6,4.0,29.84,East,89,2.2,2.2,13,0.00,,,0.00,VWS V14.01,2013-12-21 01:59:00,
2013-12-20 18:04:00,53.4,3.8,29.84,East,89,2.2,2.2,13,0.00,,,0.00,VWS V14.01,2013-12-21 02:04:00,
2013-12-20 18:09:00,53.2,3.7,29.84,East,89,0.0,0.0,13,0.00,,,0.00,VWS V14.01,2013-12-21 02:09:00,
2013-12-20 18:14:00,53.1,3.5,29.84,East,89,0.0,0.0,13,0.00,,,0.00,VWS V14.01,2013-12-21 02:14:00,
2013-12-20 18:19:00,52.9,3.4,29.84,East,89,0.0,0.0,13,0.00,,,0.00,VWS V14.01,2013-12-21 02:19:00,
2013-12-20 18:24:00,52.5,3.1,29.84,East,89,0.0,0.0,13,0.00,,,0.00,VWS V14.01,2013-12-21 02:24:00,
2013-12-20 18:29:00,52.0,2.7,29.84,East,88,0.0,0.0,13,0.00,,,0.00,VWS V14.01,2013-12-21 02:29:00,
2013-12-20 18:34:00,51.8,2.5,29.84,East,89,0.0,0.0,13,0.00,,,0.00,VWS V14.01,2013-12-21 02:34:00,
2013-12-20 18:39:00,51.6,4.0,29.84,East,89,0.0,0.0,14,0.00,,,0.00,VWS V14.01,2013-12-21 02:39:00,
2013-12-20 18:44:00,51.3,3.7,29.84,East,89,0.0,0.0,14,0.00,,,0.00,VWS V14.01,2013-12-21 02:44:00,
2013-12-20 18:49:00,51.1,3.6,29.84,East,89,0.0,0.0,14,0.00,,,0.00,VWS V14.01,2013-12-21 02:49:00,
2013-12-20 18:54:00,51.1,3.6,29.84,East,89,0.0,0.0,14,0.00,,,0.00,VWS V14.01,2013-12-21 02:54:00,
2013-12-20 18:59:00,50.9,3.4,29.84,East,89,0.0,0.0,14,0.00,,,0.00,VWS V14.01,2013-12-21 02:59:00,
2013-12-20 19:04:00,51.1,3.6,29.84,East,88,0.0,0.0,14,0.00,,,0.00,VWS V14.01,2013-12-21 03:04:00,
2013-12-20 19:09:00,51.1,3.6,29.84,East,89,0.0,0.0,14,0.00,,,0.00,VWS V14.01,2013-12-21 03:09:00,
2013-12-20 19:14:00,51.1,3.6,29.84,East,89,0.0,0.0,14,0.00,,,0.00,VWS V14.01,2013-12-21 03:14:00,
2013-12-20 19:19:00,50.9,3.4,29.84,East,89,0.0,0.0,14,0.00,,,0.00,VWS V14.01,2013-12-21 03:19:00,
2013-12-20 19:24:00,50.5,3.1,29.87,East,89,0.0,0.0,14,0.00,,,0.00,VWS V14.01,2013-12-21 03:24:00,
2013-12-20 19:29:00,50.2,2.8,29.87,East,89,0.0,0.0,14,0.00,,,0.00,VWS V14.01,2013-12-21 03:29:00,
2013-12-20 19:34:00,50.2,2.8,29.87,East,89,0.0,0.0,14,0.00,,,0.00,VWS V14.01,2013-12-21 03:34:00,
2013-12-20 19:39:00,50.0,2.7,29.87,East,89,0.0,0.0,14,0.00,,,0.00,VWS V14.01,2013-12-21 03:39:00,
2013-12-20 19:44:00,49.8,2.5,29.87,East,88,0.0,0.0,14,0.00,,,0.00,VWS V14.01,2013-12-21 03:44:00,
2013-12-20 19:49:00,49.8,2.5,29.87,East,89,0.0,0.0,14,0.00,,,0.00,VWS V14.01,2013-12-21 03:49:00,
2013-12-20 19:54:00,50.2,2.8,29.87,East,89,0.0,0.0,14,0.00,,,0.00,VWS V14.01,2013-12-21 03:54:00,
2013-12-20 19:59:00,50.4,3.0,29.87,East,89,2.2,2.2,14,0.00,,,0.00,VWS V14.01,2013-12-21 03:59:00,
2013-12-20 20:04:00,50.9,3.4,29.87,NE,36,3.1,3.1,14,0.00,,,0.00,VWS V14.01,2013-12-21 04:04:00,
2013-12-20 20:09:00,51.4,3.8,29.87,North,5,3.1,3.6,14,0.00,,,0.00,VWS V14.01,2013-12-21 04:09:00,
2013-12-20 20:14:00,52.2,2.8,29.87,NNE,19,3.1,3.1,13,0.00,,,0.00,VWS V14.01,2013-12-21 04:14:00,
2013-12-20 20:19:00,52.5,3.1,29.87,North,4,3.1,3.1,13,0.00,,,0.00,VWS V14.01,2013-12-21 04:19:00,
2013-12-20 20:24:00,52.9,3.4,29.87,North,357,4.0,4.0,13,0.00,,,0.00,VWS V14.01,2013-12-21 04:24:00,
2013-12-20 20:29:00,53.2,3.7,29.87,NNE,14,3.6,3.6,13,0.00,,,0.00,VWS V14.01,2013-12-21 04:29:00,
2013-12-20 20:34:00,53.6,4.0,29.87,North,357,4.0,4.0,13,0.00,,,0.00,VWS V14.01,2013-12-21 04:34:00,
2013-12-20 20:39:00,53.8,4.1,29.84,North,0,0.0,0.0,13,0.00,,,0.00,VWS V14.01,2013-12-21 04:39:00,
2013-12-20 20:44:00,53.4,3.8,29.84,North,0,0.0,0.0,13,0.00,,,0.00,VWS V14.01,2013-12-21 04:44:00,
2013-12-20 20:49:00,53.1,3.5,29.84,NNE,27,0.0,0.0,13,0.00,,,0.00,VWS V14.01,2013-12-21 04:49:00,
2013-12-20 20:54:00,53.1,3.5,29.87,North,9,0.0,0.0,13,0.00,,,0.00,VWS V14.01,2013-12-21 04:54:00,
2013-12-20 20:59:00,52.9,3.4,29.87,North,357,2.7,2.7,13,0.00,,,0.00,VWS V14.01,2013-12-21 04:59:00,
2013-12-20 21:01:00,52.9,3.4,29.87,North,9,2.7,3.6,13,0.00,,,0.00,VWS V14.01,2013-12-21 05:01:00,
2013-12-20 21:06:00,53.1,3.5,29.87,North,7,2.2,3.6,13,0.00,,,0.00,VWS V14.01,2013-12-21 05:06:00,
2013-12-20 21:11:00,53.2,3.7,29.87,North,1,3.1,3.1,13,0.00,,,0.00,VWS V14.01,2013-12-21 05:11:00,
2013-12-20 21:16:00,53.4,3.8,29.87,North,357,2.2,2.7,13,0.00,,,0.00,VWS V14.01,2013-12-21 05:16:00,
2013-12-20 21:21:00,53.2,3.7,29.87,North,357,0.0,0.0,13,0.00,,,0.00,VWS V14.01,2013-12-21 05:21:00,
2013-12-20 21:26:00,52.7,3.2,29.87,North,357,0.0,0.0,13,0.00,,,0.00,VWS V14.01,2013-12-21 05:26:00,
2013-12-20 21:31:00,52.0,2.7,29.87,North,357,0.0,0.0,13,0.00,,,0.00,VWS V14.01,2013-12-21 05:31:00,
2013-12-20 21:36:00,51.4,3.8,29.87,North,357,0.0,0.0,14,0.00,,,0.00,VWS V14.01,2013-12-21 05:36:00,
2013-12-20 21:41:00,51.1,3.6,29.87,North,357,0.0,0.0,14,0.00,,,0.00,VWS V14.01,2013-12-21 05:41:00,
2013-12-20 21:46:00,50.7,3.3,29.87,North,357,0.0,0.0,14,0.00,,,0.00,VWS V14.01,2013-12-21 05:46:00,
2013-12-20 21:51:00,50.4,3.0,29.87,North,357,0.0,0.0,14,0.00,,,0.00,VWS V14.01,2013-12-21 05:51:00,
2013-12-20 21:56:00,50.2,2.8,29.87,North,357,0.0,0.0,14,0.00,,,0.00,VWS V14.01,2013-12-21 05:56:00,
2013-12-20 22:01:00,50.0,2.7,29.87,North,357,0.0,0.0,14,0.00,,,0.00,VWS V14.01,2013-12-21 06:01:00,
2013-12-20 22:06:00,50.0,2.7,29.87,NE,44,3.1,3.1,14,0.00,,,0.00,VWS V14.01,2013-12-21 06:06:00,
2013-12-20 22:11:00,49.8,2.5,29.87,NE,44,0.0,2.2,14,0.00,,,0.00,VWS V14.01,2013-12-21 06:11:00,
2013-12-20 22:17:00,49.6,2.4,29.87,NE,44,0.0,0.0,14,0.00,,,0.00,VWS V14.01,2013-12-21 06:17:00,
2013-12-20 22:22:00,49.6,2.4,29.87,NE,44,0.0,0.0,14,0.00,,,0.00,VWS V14.01,2013-12-21 06:22:00,
2013-12-20 22:27:00,49.3,2.1,29.84,NE,44,0.0,0.0,14,0.00,,,0.00,VWS V14.01,2013-12-21 06:27:00,
2013-12-20 22:32:00,49.1,2.0,29.84,NE,44,0.0,0.0,14,0.00,,,0.00,VWS V14.01,2013-12-21 06:32:00,
2013-12-20 22:35:00,48.9,1.8,29.84,NE,44,0.0,0.0,14,0.00,,,0.00,VWS V14.01,2013-12-21 06:35:00,
2013-12-20 22:40:00,48.6,1.5,29.87,NE,44,0.0,0.0,14,0.00,,,0.00,VWS V14.01,2013-12-21 06:40:00,
2013-12-20 22:45:00,48.2,1.2,29.87,NE,44,0.0,0.0,14,0.00,,,0.00,VWS V14.01,2013-12-21 06:45:00,
2013-12-20 22:50:00,48.2,1.2,29.87,NE,44,0.0,0.0,14,0.00,,,0.00,VWS V14.01,2013-12-21 06:50:00,
2013-12-20 22:55:00,48.2,1.2,29.87,NE,45,0.0,0.0,14,0.00,,,0.00,VWS V14.01,2013-12-21 06:55:00,
2013-12-20 23:00:00,48.2,1.2,29.87,NE,44,0.0,0.0,14,0.00,,,0.00,VWS V14.01,2013-12-21 07:00:00,
2013-12-20 23:05:00,48.4,1.4,29.87,NE,44,0.0,0.0,14,0.00,,,0.00,VWS V14.01,2013-12-21 07:05:00,
2013-12-20 23:10:00,48.4,1.4,29.87,NE,44,0.0,0.0,14,0.00,,,0.00,VWS V14.01,2013-12-21 07:10:00,
2013-12-20 23:15:00,48.2,1.2,29.87,NE,44,0.0,0.0,14,0.00,,,0.00,VWS V14.01,2013-12-21 07:15:00,
2013-12-20 23:20:00,48.0,1.1,29.87,NE,44,0.0,0.0,14,0.00,,,0.00,VWS V14.01,2013-12-21 07:20:00,
2013-12-20 23:25:00,47.7,0.8,29.84,NE,44,0.0,0.0,14,0.00,,,0.00,VWS V14.01,2013-12-21 07:25:00,
2013-12-20 23:30:00,47.5,-2.6,29.84,NE,44,0.0,0.0,12,0.00,,,0.00,VWS V14.01,2013-12-21 07:30:00,
2013-12-20 23:35:00,47.7,0.8,29.84,East,101,0.0,0.0,14,0.00,,,0.00,VWS V14.01,2013-12-21 07:35:00,
2013-12-20 23:40:00,47.8,1.0,29.87,East,83,0.0,0.0,14,0.00,,,0.00,VWS V14.01,2013-12-21 07:40:00,
2013-12-20 23:45:00,48.0,1.1,29.87,East,83,0.0,0.0,14,0.00,,,0.00,VWS V14.01,2013-12-21 07:45:00,
2013-12-20 23:50:00,48.0,1.1,29.87,East,83,0.0,0.0,14,0.00,,,0.00,VWS V14.01,2013-12-21 07:50:00,
2013-12-20 23:55:00,48.0,1.1,29.87,East,83,0.0,0.0,14,0.00,,,0.00,VWS V14.01,2013-12-21 07:55:00,